Find Starlink 1051

NORAD ID: 44756 Int'l Des: 2019-074 Owner: SPXS Country: US Constellation: starlink decayed
LEOCIRCULAR

Re-entered — Dec 20, 2021

正在加载3D地球...

About Starlink 1051

Starlink 1051 (NORAD 44756) is a starlink constellation satellite (v1.0) launched Nov 11, 2019 by SPXS of US. It re-entered the atmosphere on Dec 20, 2021. with a mass of 260.00 kg.

关于 Starlink 1051

正在加载描述...

高度历史

Loading altitude history...

两行轨道根数

1 44756U 19074AV 21354.31171645 .11367391 12138-4 26442-2 0 9990
2 44756 53.0268 163.8503 0005448 326.1844 36.6435 16.29058133118114
Epoch: Dec 20, 2021 • Age: 39597 hours

当前状态

Position data unavailable
发射日期 Nov 11, 2019
运行时间 6.6 years
衰减日期 Dec 20, 2021
类型 internet

技术详情

分类 Payload
质量 260.00 kg
干质量 248.00 kg
总质量 260.00 kg
长度 0.20 m
直径 2.80 m
跨度 9.00 m
形状 Box + pan
制造商 SPXS
平台类型 Starlink
阶段状态 Unknown Transfer Status
所有者/国家 SPXS/US

Most Searched